Location: De Greiden
(52.9496°N, 5.9137°E)
Time: 22:37:17
(UTC+00:00)

Cosmos 2278 Rocket - Pass Details

Date: 24 January 2021
Orbit: 840 x 847 km, 71.0° (Epoch: 01 March)

Event Time Altitude Azimuth Distance (km) Brightness Sun altitude
Rises 19:03:57 0° 200° (SSW) 3,391 5.5 -26.4°
Reaches altitude 10° 19:06:24 10° 198° (SSW) 2,461 4.8 -26.7°
Enters shadow 19:10:34 49° 177° (S) 1,082 2.6 -27.4°
